Simultaneous Nadir Overpasses (SNOs) Predictions

Prediction of SNOs near equator between NOAA-19 and NPP Satellite Orbit:

Table of predicted SNOs near equator for the next 14.0 days since TLE Epoch: 3/16/2012
Index Date (NOAA-19) Time (NOAA-19) NOAA-19 Lat,Lon Date (NPP) Time (NPP) NPP Lat,Lon Distance(km) Time Diff (sec)
1 03/16/2012 20:17:33 29.98,-106.52 03/16/2012 20:11:00 29.93,-106.78 25.12 393
2 03/16/2012 21:08:37 -29.97, 60.71 03/16/2012 21:01:42 -29.96, 60.54 16.52 415
3 03/16/2012 21:59:38 29.96,-132.04 03/16/2012 21:52:30 29.94,-132.15 11.28 428
4 03/16/2012 22:50:15 -28.38, 35.63 03/16/2012 22:42:45 -28.39, 35.59 3.75 450
5 03/16/2012 23:38:54 20.10,-154.98 03/16/2012 23:31:12 20.11,-154.99 1.07 462
6 03/17/2012 00:24:34 -1.20, 16.67 03/17/2012 00:16:31 -1.19, 16.70 3.05 483
7 03/17/2012 01:14:56 -1.12,-175.56 03/17/2012 01:06:41 -1.10,-175.50 7.73 495
8 03/17/2012 02:06:22 -0.18, -8.62 03/17/2012 01:57:44 -0.20, -8.46 18.57 518
9 03/17/2012 02:57:37 0.96, 158.44 03/17/2012 02:48:47 1.02, 158.65 24.50 530
10 03/17/2012 03:49:03 -2.26, -34.62 03/17/2012 03:39:50 -2.32, -34.31 35.18 553
11 03/17/2012 04:40:17 2.98, 132.46 03/17/2012 04:30:52 3.09, 132.82 41.20 565
12 03/17/2012 05:31:43 -4.28, -60.60 03/17/2012 05:21:55 -4.38, -60.14 51.79 588
13 03/17/2012 06:22:58 5.06, 106.47 03/17/2012 06:12:58 5.21, 106.97 57.81 600
14 03/28/2012 15:35:31 -29.96, 144.00 03/28/2012 15:31:46 -29.76, 143.04 95.30 225
15 03/28/2012 16:26:34 29.97, -48.77 03/28/2012 16:22:35 29.80, -49.67 89.62 239
16 03/28/2012 17:17:37 -29.99, 118.47 03/28/2012 17:13:17 -29.82, 117.65 81.38 260
17 03/28/2012 18:08:39 29.94, -74.28 03/28/2012 18:04:05 29.80, -75.05 75.77 274
18 03/28/2012 18:59:42 -29.97, 92.95 03/28/2012 18:54:47 -29.83, 92.27 67.53 295
19 03/28/2012 19:50:45 29.98, -99.81 03/28/2012 19:45:36 29.87,-100.44 61.88 309
20 03/28/2012 20:41:47 -29.94, 67.44 03/28/2012 20:36:17 -29.83, 66.89 53.69 330
21 03/28/2012 21:32:50 29.95,-125.33 03/28/2012 21:27:06 29.87,-125.82 48.05 344
22 03/28/2012 22:23:53 -29.98, 41.90 03/28/2012 22:17:48 -29.90, 41.50 39.80 365
23 03/28/2012 23:14:56 29.98,-150.86 03/28/2012 23:08:37 29.94,-151.21 34.20 379
24 03/29/2012 00:05:58 -29.95, 16.39 03/28/2012 23:59:18 -29.90, 16.12 25.96 400
25 03/29/2012 00:57:01 29.96,-176.38 03/29/2012 00:50:07 29.94,-176.59 20.45 414
26 03/29/2012 01:48:04 -29.99, -9.14 03/29/2012 01:40:49 -29.97, -9.27 12.09 435
27 03/29/2012 02:39:07 29.99, 158.09 03/29/2012 02:31:38 30.01, 158.02 7.10 449
28 03/29/2012 03:29:18 -27.00, -33.85 03/29/2012 03:21:28 -26.99, -33.84 0.98 470
29 03/29/2012 04:15:26 9.84, 137.61 03/29/2012 04:07:24 9.84, 137.61 0.80 482
30 03/29/2012 05:03:30 0.64, -52.77 03/29/2012 04:55:07 0.63, -52.71 7.31 503
31 03/29/2012 05:54:44 0.07, 114.31 03/29/2012 05:46:08 0.08, 114.43 13.46 516
32 03/29/2012 06:46:11 -1.44, -78.76 03/29/2012 06:37:13 -1.49, -78.56 24.03
